Tracking 29493 objects as of 8-Sep-2024
HD Live streaming from Space Station
objects crossing your sky now

FENGYUN 1C DEB

Track FENGYUN 1C DEB now!
10-day predictions


NORAD ID: 31642
Int'l Code: 1999-025CAY
Perigee: 704.9 km
Apogee: 881.8 km
Inclination: 98.5 °
Period: 100.6 minutes
Semi major axis: 7164 km
RCS: 0.0088 m2 (small)
Launch date: May 10, 1999
Source: People's Republic of China (PRC)
Launch site: Taiyaun Space Center, China (TSC)

Note: This is SATELLITE DEBRIS
Your satellite tracking list
Your tracking list is empty




NASA's NSSDC Master Catalog

Two Line Element Set (TLE):
1 31642U 99025CAY 24251.70097649  .00005349  00000-0  18603-2 0  9998
2 31642  98.5304 335.7347 0123473 180.2301 179.8846 14.31641686904178
Source of the keplerian elements: AFSPC